EW2748 Weather Reports


Display with metric or nautical units.
time (UTC)temp
F
wind
direction
speed
MPH
gust
MPH
rain 1hr
in
rain 24hr
in
rain mn
in
humidity
%
barometer
mb
20260901191516 94 131 0.0 1.0 0.00 0.00 0.00 47 1019.6
20260901191009 95 186 0.0 1.0 0.00 0.00 0.00 50 1019.7
20260901190513 96 186 0.0 1.0 0.00 0.00 0.00 48 1019.8
20260901190039 95 235 0.0 1.0 0.00 0.00 0.00 48 1019.9
20260901185508 94 224 0.0 1.0 0.00 0.00 0.00 50 1019.8
20260901185015 93 198 0.0 1.0 0.00 0.00 0.00 51 1019.9
20260901184524 92 264 0.0 1.0 0.00 0.00 0.00 52 1020.0
20260901184013 93 232 0.0 1.0 0.00 0.00 0.00 52 1020.1
20260901183512 93 289 0.0 1.0 0.00 0.00 0.00 51 1020.1
20260901183030 93 87 0.0 2.0 0.00 0.00 0.00 48 1020.2
20260901182512 94 87 0.0 2.0 0.00 0.00 0.00 48 1020.1
20260901182006 94 78 0.0 2.0 0.00 0.00 0.00 48 1020.3
20260901181527 95 276 0.0 2.0 0.00 0.00 0.00 48 1020.4
20260901181013 95 66 0.0 3.0 0.00 0.00 0.00 47 1020.5
20260901180515 95 54 1.0 3.0 0.00 0.00 0.00 49 1020.5
20260901180023 95 295 0.0 3.0 0.00 0.00 0.00 48 1020.4
20260901175509 96 316 1.0 2.0 0.00 0.00 0.00 46 1020.5
20260901174522 95 260 0.0 1.0 0.00 0.00 0.00 47 1020.6
20260901174016 95 274 0.0 3.0 0.00 0.00 0.00 48 1020.7
20260901173516 95 274 1.0 3.0 0.00 0.00 0.00 49 1020.7
20260901173025 94 94 0.0 3.0 0.00 0.00 0.00 52 1020.8
20260901172511 94 221 0.0 3.0 0.00 0.00 0.00 49 1020.8
20260901171527 94 120 0.0 2.0 0.00 0.00 0.00 53 1021.0
20260901171012 94 279 0.0 2.0 0.00 0.00 0.00 52 1021.1
20260901170512 93 283 0.0 2.0 0.00 0.00 0.00 53 1021.2
20260901170030 93 309 0.0 2.0 0.00 0.00 0.00 50 1021.2
20260901165511 93 233 0.0 2.0 0.00 0.00 0.00 51 1021.3
20260901165012 93 276 0.0 3.0 0.00 0.00 0.00 54 1021.3
20260901164528 92 194 0.0 3.0 0.00 0.00 0.00 52 1021.3
20260901164013 92 269 0.0 2.0 0.00 0.00 0.00 54 1021.2
20260901163514 91 220 0.0 1.0 0.00 0.00 0.00 56 1021.3
20260901163026 91 210 0.0 1.0 0.00 0.00 0.00 58 1021.3
20260901162512 91 223 0.0 2.0 0.00 0.00 0.00 58 1021.4
20260901162013 90 150 0.0 2.0 0.00 0.00 0.00 55 1021.5
20260901161516 90 109 0.0 1.0 0.00 0.00 0.00 60 1021.5
20260901161010 89 231 0.0 0.0 0.00 0.00 0.00 62 1021.5
20260901160032 88 235 0.0 1.0 0.00 0.00 0.00 63 1021.6
20260901155510 88 146 0.0 1.0 0.00 0.00 0.00 62 1021.6
20260901155014 87 125 0.0 3.0 0.00 0.00 0.00 65 1021.7
20260901154532 87 299 0.0 3.0 0.00 0.00 0.00 64 1021.7
20260901154014 87 298 1.0 3.0 0.00 0.00 0.00 64 1021.7
20260901153513 87 261 0.0 1.0 0.00 0.00 0.00 67 1021.6
20260901153033 87 263 0.0 1.0 0.00 0.00 0.00 65 1021.6
20260901152514 87 222 0.0 1.0 0.00 0.00 0.00 67 1021.7
20260901152010 86 145 0.0 2.0 0.00 0.00 0.00 66 1021.7
20260901151526 86 115 0.0 2.0 0.00 0.00 0.00 69 1021.7
20260901151012 86 149 0.0 2.0 0.00 0.00 0.00 68 1021.7
20260901150515 85 99 0.0 2.0 0.00 0.00 0.00 69 1021.7
20260901150032 85 91 0.0 0.0 0.00 0.00 0.00 69 1021.7
20260901145516 85 252 0.0 0.0 0.00 0.00 0.00 70 1021.7
20260901145014 85 252 0.0 2.0 0.00 0.00 0.00 69 1021.6
20260901144520 85 119 0.0 2.0 0.00 0.00 0.00 70 1021.6
20260901144013 85 172 0.0 2.0 0.00 0.00 0.00 71 1021.6
20260901143514 85 134 0.0 2.0 0.00 0.00 0.00 69 1021.7
20260901143037 84 154 0.0 2.0 0.00 0.00 0.00 71 1021.6
20260901142511 84 105 1.0 2.0 0.00 0.00 0.00 71 1021.7
20260901142013 84 112 0.0 2.0 0.00 0.00 0.00 73 1021.6
20260901141529 83 94 0.0 2.0 0.00 0.00 0.00 74 1021.6
20260901141017 83 106 0.0 2.0 0.00 0.00 0.00 76 1021.6
20260901140503 82 99 0.0 2.0 0.00 0.00 0.00 75 1021.5
20260901140019 82 86 0.0 2.0 0.00 0.00 0.00 76 1021.5
20260901135507 82 82 0.0 2.0 0.00 0.00 0.00 77 1021.5
20260901135014 81 89 0.0 2.0 0.00 0.00 0.00 77 1021.4
20260901134511 81 86 0.0 1.0 0.00 0.00 0.00 77 1021.4
20260901134006 81 150 0.0 1.0 0.00 0.00 0.00 78 1021.4
20260901133508 80 96 0.0 1.0 0.00 0.00 0.00 80 1021.3
20260901133032 80 83 0.0 2.0 0.00 0.00 0.00 81 1021.3
20260901132503 80 84 0.0 2.0 0.00 0.00 0.00 81 1021.4
20260901132008 79 79 0.0 2.0 0.00 0.00 0.00 82 1021.4
20260901131528 79 150 0.0 2.0 0.00 0.00 0.00 84 1021.4
20260901131004 78 135 0.0 1.0 0.00 0.00 0.00 85 1021.4
20260901130504 78 146 0.0 1.0 0.00 0.00 0.00 85 1021.4
20260901130023 78 100 0.0 0.0 0.00 0.00 0.00 86 1021.4
20260901125511 77 143 0.0 0.0 0.00 0.00 0.00 88 1021.3
20260901125004 77 102 0.0 0.0 0.00 0.00 0.00 89 1021.4
20260901124516 76 117 0.0 0.0 0.00 0.00 0.00 91 1021.3
20260901124009 75 118 0.0 0.0 0.00 0.00 0.00 93 1021.2
20260901123503 74 117 0.0 0.0 0.00 0.00 0.00 95 1021.1
20260901123020 74 183 0.0 0.0 0.00 0.00 0.00 96 1021.3
20260901122510 73 183 0.0 0.0 0.00 0.00 0.00 96 1021.1
20260901122013 73 183 0.0 0.0 0.00 0.00 0.00 96 1021.0
20260901121511 72 183 0.0 0.0 0.00 0.00 0.00 96 1021.1
20260901121008 72 183 0.0 0.0 0.00 0.00 0.00 96 1021.0
20260901120511 72 183 0.0 0.0 0.00 0.00 0.00 96 1020.9
20260901120034 72 183 0.0 0.0 0.00 0.00 0.00 96 1020.9
20260901115504 72 183 0.0 0.0 0.00 0.00 0.00 96 1020.9
20260901115008 72 183 0.0 0.0 0.00 0.00 0.00 96 1020.7
20260901114530 72 182 0.0 0.0 0.00 0.00 0.00 96 1020.8
20260901114007 72 183 0.0 0.0 0.00 0.00 0.00 96 1020.6
20260901113509 72 183 0.0 0.0 0.00 0.00 0.00 96 1020.6
20260901113024 72 183 0.0 0.0 0.00 0.00 0.00 96 1020.7
20260901112515 72 182 0.0 0.0 0.00 0.00 0.00 96 1020.6
20260901112003 72 183 0.0 0.0 0.00 0.00 0.00 96 1020.6
20260901111520 72 182 0.0 0.0 0.00 0.00 0.00 96 1020.4
20260901111013 72 183 0.0 0.0 0.00 0.00 0.00 96 1020.4
20260901110503 72 182 0.0 0.0 0.00 0.00 0.00 96 1020.5
20260901110017 72 182 0.0 0.0 0.00 0.00 0.00 96 1020.5
20260901105513 72 182 0.0 0.0 0.00 0.00 0.00 96 1020.4
20260901105012 72 183 0.0 0.0 0.00 0.00 0.00 96 1020.3
20260901104528 72 182 0.0 0.0 0.00 0.00 0.00 96 1020.2
20260901104010 72 183 0.0 0.0 0.00 0.00 0.00 95 1020.4
20260901103514 72 183 0.0 0.0 0.00 0.00 0.00 95 1020.3
20260901103010 72 183 0.0 0.0 0.00 0.00 0.00 95 1020.2
20260901102507 72 183 0.0 0.0 0.00 0.00 0.00 95 1020.2
20260901102009 72 183 0.0 0.0 0.00 0.00 0.00 95 1020.2
20260901101531 72 182 0.0 0.0 0.00 0.00 0.00 95 1020.2
20260901101004 72 183 0.0 0.0 0.00 0.00 0.00 95 1020.1
20260901100508 72 183 0.0 0.0 0.00 0.00 0.00 95 1020.0
20260901100027 72 183 0.0 0.0 0.00 0.00 0.00 95 1019.9
20260901095515 72 183 0.0 0.0 0.00 0.00 0.00 95 1020.0
20260901095005 73 183 0.0 0.0 0.00 0.00 0.00 95 1020.0
20260901094523 73 183 0.0 0.0 0.00 0.00 0.00 95 1019.9
20260901094016 73 183 0.0 0.0 0.00 0.00 0.00 95 1019.9
20260901093504 73 183 0.0 0.0 0.00 0.00 0.00 95 1019.9
20260901093016 73 183 0.0 0.0 0.00 0.00 0.00 95 1019.9
20260901092510 73 183 0.0 0.0 0.00 0.00 0.00 95 1019.9
20260901092014 73 183 0.0 0.0 0.00 0.00 0.00 95 1019.7
20260901091518 73 183 0.0 0.0 0.00 0.00 0.00 94 1019.8
20260901091012 73 183 0.0 0.0 0.00 0.00 0.00 95 1019.7
20260901090513 73 183 0.0 0.0 0.00 0.00 0.00 95 1019.8
20260901090018 73 183 0.0 0.0 0.00 0.00 0.00 95 1019.6
20260901085011 73 183 0.0 0.0 0.00 0.00 0.00 95 1019.5
20260901084531 73 183 0.0 0.0 0.00 0.00 0.00 95 1019.4
20260901084006 73 182 0.0 0.0 0.00 0.00 0.00 95 1019.4
20260901083508 73 183 0.0 0.0 0.00 0.00 0.00 94 1019.6
20260901083027 73 183 0.0 0.0 0.00 0.00 0.00 94 1019.6
20260901082514 73 182 0.0 0.0 0.00 0.00 0.00 94 1019.5
20260901082006 73 183 0.0 0.0 0.00 0.00 0.00 94 1019.5
20260901081526 73 183 0.0 0.0 0.00 0.00 0.00 94 1019.5
20260901081013 73 183 0.0 0.0 0.00 0.00 0.00 94 1019.5
20260901080507 73 183 0.0 0.0 0.00 0.00 0.00 94 1019.6
20260901080030 73 182 0.0 0.0 0.00 0.00 0.00 94 1019.7
20260901075515 73 183 0.0 0.0 0.00 0.00 0.00 94 1019.6
20260901075014 73 183 0.0 0.0 0.00 0.00 0.00 93 1019.5
20260901074516 73 183 0.0 0.0 0.00 0.00 0.00 93 1019.5
20260901074012 74 183 0.0 0.0 0.00 0.00 0.00 93 1019.4
20260901073515 74 183 0.0 0.0 0.00 0.00 0.00 93 1019.4
20260901073012 74 183 0.0 0.0 0.00 0.00 0.00 93 1019.5
20260901072507 74 183 0.0 0.0 0.00 0.00 0.00 93 1019.4
20260901072017 74 183 0.0 0.0 0.00 0.00 0.00 93 1019.5
20260901071536 74 182 0.0 0.0 0.00 0.00 0.00 93 1019.4
20260901070512 74 183 0.0 0.0 0.00 0.00 0.00 93 1019.5
20260901070032 74 183 0.0 0.0 0.00 0.00 0.00 92 1019.6
20260901065507 74 182 0.0 0.0 0.00 0.00 0.00 91 1019.5
20260901065010 75 183 0.0 0.0 0.00 0.00 0.00 91 1019.4
20260901064527 75 183 0.0 0.0 0.00 0.00 0.00 91 1019.5
20260901064017 75 183 0.0 0.0 0.00 0.00 0.00 91 1019.5
20260901063506 75 183 0.0 0.0 0.00 0.00 0.00 91 1019.6
20260901063027 75 182 0.0 0.0 0.00 0.00 0.00 91 1019.5
20260901062514 75 183 0.0 0.0 0.00 0.00 0.00 90 1019.5
20260901062020 75 183 0.0 0.0 0.00 0.00 0.00 90 1019.6
20260901061520 75 182 0.0 0.0 0.00 0.00 0.00 91 1019.5
20260901061019 75 183 0.0 0.0 0.00 0.00 0.00 91 1019.8
20260901060514 75 182 0.0 0.0 0.00 0.00 0.00 91 1019.7
20260901060022 75 182 0.0 0.0 0.00 0.00 0.00 91 1019.6
20260901055511 75 183 0.0 0.0 0.00 0.00 0.00 91 1019.8
20260901055016 75 183 0.0 0.0 0.00 0.00 0.00 91 1019.5
20260901054534 75 183 0.0 0.0 0.00 0.00 0.00 90 1019.7
20260901054010 75 183 0.0 0.0 0.00 0.00 0.00 90 1019.7
20260901053513 75 183 0.0 0.0 0.00 0.00 0.00 90 1019.6
20260901053030 75 183 0.0 0.0 0.00 0.00 0.00 89 1019.8
20260901052508 75 183 0.0 0.0 0.00 0.00 0.00 89 1019.8
20260901052016 75 183 0.0 0.0 0.00 0.00 0.00 89 1019.8
20260901051529 75 183 0.0 0.0 0.00 0.00 0.00 88 1019.8
20260901051017 76 183 0.0 0.0 0.00 0.00 0.00 88 1019.7
20260901050506 76 183 0.0 0.0 0.00 0.00 0.00 88 1019.6
20260901050030 76 182 0.0 0.0 0.00 0.00 0.00 89 1019.8
20260901045516 76 183 0.0 0.0 0.00 0.00 0.00 88 1019.8
20260901045010 76 183 0.0 0.0 0.00 0.00 0.00 88 1019.6
20260901044521 76 183 0.0 0.0 0.00 0.00 0.00 88 1019.7
20260901044016 76 183 0.0 0.0 0.00 0.00 0.00 88 1019.7
20260901043504 76 182 0.0 0.0 0.00 0.00 0.00 87 1019.8
20260901043027 76 183 0.0 0.0 0.00 0.00 0.00 87 1019.8
20260901042513 76 183 0.0 0.0 0.00 0.00 0.00 86 1019.9
20260901042003 76 183 0.0 0.0 0.00 0.00 0.00 86 1019.8
20260901041519 76 183 0.0 0.0 0.00 0.00 0.00 86 1019.8
20260901041009 76 183 0.0 0.0 0.00 0.00 0.00 86 1019.8
20260901040515 76 183 0.0 0.0 0.00 0.00 0.00 86 1019.7
20260901040012 77 182 0.0 0.0 0.00 0.00 0.00 86 1019.8
20260901035508 77 183 0.0 0.0 0.00 0.00 0.00 85 1019.8
20260901035015 77 183 0.0 0.0 0.00 0.00 0.00 86 1019.8
20260901034540 77 183 0.0 0.0 0.00 0.00 0.00 85 1019.8
20260901034009 77 183 0.0 0.0 0.00 0.00 0.00 85 1019.7
20260901033510 77 182 0.0 0.0 0.00 0.00 0.00 85 1019.8
20260901033041 77 183 0.0 0.0 0.00 0.00 0.00 85 1019.8
20260901032503 77 182 0.0 0.0 0.00 0.00 0.00 84 1019.8
20260901032008 78 183 0.0 0.0 0.00 0.00 0.00 85 1019.8
20260901031546 78 182 0.0 0.0 0.00 0.00 0.00 83 1019.8
20260901031019 78 182 0.0 0.0 0.00 0.00 0.00 83 1019.9
20260901030505 78 182 0.0 0.0 0.00 0.00 0.00 84 1019.8
20260901030023 78 183 0.0 0.0 0.00 0.00 0.00 83 1020.0
20260901025517 78 182 0.0 0.0 0.00 0.00 0.00 83 1019.9
20260901025004 78 183 0.0 0.0 0.00 0.00 0.00 83 1019.9
20260901024521 78 182 0.0 0.0 0.00 0.00 0.00 82 1019.9
20260901024012 78 182 0.0 0.0 0.00 0.00 0.00 82 1019.8
20260901023024 79 183 0.0 0.0 0.00 0.00 0.00 81 1019.7
20260901022512 79 182 0.0 0.0 0.00 0.00 0.00 81 1019.6
20260901022014 79 183 0.0 0.0 0.00 0.00 0.00 81 1019.6
20260901021517 79 183 0.0 0.0 0.00 0.00 0.00 80 1019.7
20260901021012 79 182 0.0 0.0 0.00 0.00 0.00 80 1019.6
20260901020510 79 183 0.0 0.0 0.00 0.00 0.00 80 1019.4
20260901020033 80 182 0.0 0.0 0.00 0.00 0.00 80 1019.4
20260901015505 80 182 0.0 0.0 0.00 0.00 0.00 79 1019.5
20260901015010 80 182 0.0 0.0 0.00 0.00 0.00 78 1019.4
20260901014531 80 182 0.0 0.0 0.00 0.00 0.00 78 1019.3
20260901014015 80 183 0.0 0.0 0.00 0.00 0.00 77 1019.1
20260901013513 81 182 0.0 0.0 0.00 0.00 0.00 76 1019.3
20260901013036 81 183 0.0 0.0 0.00 0.00 0.00 75 1019.3
20260901012514 81 182 0.0 0.0 0.00 0.00 0.00 75 1019.2
20260901012005 81 183 0.0 0.0 0.00 0.00 0.00 74 1019.1
20260901011520 81 182 0.0 0.0 0.00 0.00 0.00 74 1019.0
20260901011015 82 182 0.0 0.0 0.00 0.00 0.00 73 1019.0
20260901010519 82 182 0.0 0.0 0.00 0.00 0.00 72 1019.0
20260901010020 82 182 0.0 0.0 0.00 0.00 0.00 72 1019.1
20260901005510 83 183 0.0 0.0 0.00 0.00 0.00 70 1018.8
20260901005013 83 183 0.0 0.0 0.00 0.00 0.00 70 1018.8
20260901004518 83 182 0.0 0.0 0.00 0.00 0.00 69 1018.8
20260901004011 84 182 0.0 0.0 0.00 0.00 0.00 68 1018.7
20260901003514 84 183 0.0 0.0 0.00 0.00 0.00 67 1018.6
20260901003031 85 182 0.0 0.0 0.00 0.00 0.00 67 1018.3
20260901002508 85 182 0.0 0.0 0.00 0.00 0.00 67 1018.6
20260901002010 85 182 0.0 0.0 0.00 0.00 0.00 65 1018.8
20260901001545 86 182 0.0 0.0 0.00 0.00 0.00 65 1018.6
20260901001019 86 183 0.0 0.0 0.00 0.00 0.00 64 1018.5
20260901000510 86 183 0.0 0.0 0.00 0.00 0.00 65 1018.5
20260901000031 87 183 0.0 0.0 0.00 0.00 0.00 63 1018.6
20260831235523 87 182 0.0 0.0 0.00 0.00 0.00 63 1018.7
20260831235007 88 182 0.0 0.0 0.00 0.00 0.00 61 1018.7
20260831234526 88 182 0.0 0.0 0.00 0.00 0.00 60 1018.5
20260831234013 88 182 0.0 1.0 0.00 0.00 0.00 60 1018.5
20260831233519 89 134 0.0 2.0 0.00 0.00 0.00 58 1018.8
20260831233019 89 134 0.0 2.0 0.00 0.00 0.00 57 1018.6
20260831232511 89 146 0.0 2.0 0.00 0.00 0.00 58 1018.5
20260831232015 89 141 0.0 2.0 0.00 0.00 0.00 58 1018.5
20260831231514 89 127 0.0 2.0 0.00 0.00 0.00 58 1018.7
20260831231014 89 154 0.0 1.0 0.00 0.00 0.00 58 1018.8
20260831230515 89 152 0.0 2.0 0.00 0.00 0.00 58 1018.6
20260831230032 90 211 0.0 2.0 0.00 0.00 0.00 57 1018.6
20260831225510 90 130 0.0 1.0 0.00 0.00 0.00 56 1018.7
20260831225014 90 100 0.0 2.0 0.00 0.00 0.00 57 1018.9
20260831224533 90 138 0.0 2.0 0.00 0.00 0.00 56 1018.8
20260831224008 90 109 0.0 2.0 0.00 0.00 0.00 56 1018.7
20260831223511 90 148 0.0 2.0 0.00 0.00 0.00 56 1018.8
20260831223031 90 173 0.0 4.0 0.00 0.00 0.00 56 1019.0
20260831222518 90 79 0.0 4.0 0.00 0.00 0.00 56 1019.0
20260831222009 90 117 0.0 3.0 0.00 0.00 0.00 54 1018.9
20260831221527 90 207 0.0 4.0 0.00 0.00 0.00 54 1018.9
20260831221015 91 103 1.0 4.0 0.00 0.00 0.00 53 1019.0
20260831220520 91 143 1.0 7.0 0.00 0.00 0.00 53 1019.1
20260831220026 91 96 2.0 7.0 0.00 0.00 0.00 53 1019.1
20260831215512 91 155 2.0 5.0 0.00 0.00 0.00 53 1019.0
20260831215017 91 75 2.0 5.0 0.00 0.00 0.00 53 1019.1
20260831214521 91 84 1.0 5.0 0.00 0.00 0.00 53 1019.3
20260831214011 91 103 2.0 5.0 0.00 0.00 0.00 53 1019.2
20260831213518 91 198 0.0 4.0 0.00 0.00 0.00 54 1019.0
20260831213048 91 181 0.0 5.0 0.00 0.00 0.00 55 1019.1
20260831212511 91 128 1.0 5.0 0.00 0.00 0.00 53 1019.1
20260831212012 92 168 0.0 4.0 0.00 0.00 0.00 52 1019.3
20260831211536 92 220 0.0 4.0 0.00 0.00 0.00 53 1019.2
20260831211008 92 111 0.0 5.0 0.00 0.00 0.00 52 1019.3
20260831210515 92 111 2.0 5.0 0.00 0.00 0.00 51 1019.3
20260831210031 93 123 0.0 3.0 0.00 0.00 0.00 50 1019.5
20260831205520 93 269 0.0 3.0 0.00 0.00 0.00 51 1019.5
20260831205008 93 96 1.0 2.0 0.00 0.00 0.00 49 1019.4
20260831204530 93 214 0.0 3.0 0.00 0.00 0.00 50 1019.5
20260831204016 92 175 1.0 3.0 0.00 0.00 0.00 48 1019.7
20260831203517 92 106 2.0 3.0 0.00 0.00 0.00 49 1019.7
20260831203028 93 74 2.0 3.0 0.00 0.00 0.00 49 1019.8
20260831202515 93 111 1.0 7.0 0.00 0.00 0.00 49 1019.7
20260831202015 93 86 3.0 7.0 0.00 0.00 0.00 49 1019.7
20260831201526 93 91 1.0 5.0 0.00 0.00 0.00 50 1019.9
20260831201011 93 98 1.0 4.0 0.00 0.00 0.00 49 1019.9
20260831200504 93 75 0.0 3.0 0.00 0.00 0.00 49 1019.9
20260831200018 94 103 0.0 3.0 0.00 0.00 0.00 51 1019.9
20260831195515 95 94 0.0 2.0 0.00 0.00 0.00 49 1020.1
20260831195003 95 258 0.0 2.0 0.00 0.00 0.00 48 1020.1
20260831194514 94 205 0.0 1.0 0.00 0.00 0.00 49 1020.1
20260831194009 94 239 0.0 2.0 0.00 0.00 0.00 51 1020.2
20260831193503 94 141 0.0 3.0 0.00 0.00 0.00 50 1020.2
20260831193011 93 191 0.0 3.0 0.00 0.00 0.00 53 1020.3
20260831192509 93 100 0.0 2.0 0.00 0.00 0.00 53 1020.3
20260831192010 94 77 0.0 1.0 0.00 0.00 0.00 52 1020.4